This is the latest recevied weather packets stored in our database for station/object N9DMT-13. If no packets are shown the sender has not sent any weather packets the latest 10 day(s).
| Time | Temp. | Humidity | Pressure | Rain* | Wind** | Luminosity | Snow |
|---|---|---|---|---|---|---|---|
| 1777608352 | 5° C | 57% | 984.3 hPa | 0 mm | - | - | - |
| 1777608051 | 5.56° C | 59% | 984.3 hPa | 0 mm | - | - | - |
| 1777607750 | 5.56° C | 56% | 984.4 hPa | 0 mm | - | - | - |
| 1777607450 | 6.11° C | 55% | 984.4 hPa | 0 mm | - | - | - |
| 1777607149 | 6.11° C | 54% | 984.2 hPa | 0 mm | - | - | - |
| 1777606848 | 6.67° C | 53% | 984.3 hPa | 0 mm | - | - | - |
| 1777606547 | 6.67° C | 53% | 984.1 hPa | 0 mm | - | - | - |
| 1777606247 | 6.67° C | 52% | 984.1 hPa | 0 mm | - | - | - |
| 1777605946 | 7.22° C | 52% | 984.2 hPa | 0 mm | - | - | - |
| 1777605646 | 7.22° C | 51% | 984.3 hPa | 0 mm | - | - | - |
| 1777605345 | 7.22° C | 51% | 984.2 hPa | 0 mm | - | - | - |
| 1777605044 | 7.78° C | 52% | 984.3 hPa | 0 mm | - | - | - |
| 1777604743 | 7.78° C | 50% | 984.2 hPa | 0 mm | - | - | - |
| 1777604443 | 7.78° C | 49% | 984.1 hPa | 0 mm | - | - | - |
| 1777604142 | 7.78° C | 49% | 984 hPa | 0 mm | - | - | - |
| 1777603841 | 7.78° C | 50% | 984.2 hPa | 0 mm | - | - | - |
| 1777603540 | 8.33° C | 49% | 984.2 hPa | 0 mm | - | - | - |
| 1777603239 | 8.33° C | 49% | 984 hPa | 0 mm | - | - | - |
| 1777602938 | 8.33° C | 48% | 983.9 hPa | 0 mm | - | - | - |
| 1777602638 | 8.33° C | 49% | 983.8 hPa | 0 mm | - | - | - |
| 1777602336 | 8.89° C | 49% | 983.7 hPa | 0 mm | - | - | - |
| 1777602036 | 8.89° C | 49% | 983.8 hPa | 0 mm | - | - | - |
| 1777601735 | 8.89° C | 49% | 983.5 hPa | 0 mm | - | - | - |
| 1777601435 | 8.89° C | 49% | 983.3 hPa | 0 mm | - | - | - |
| 1777601134 | 8.89° C | 48% | 983.6 hPa | 0 mm | - | - | - |
* Rain latest hour (hover to see other rain measurements)
** Current wind speed in m/s (hover to see current wind gust speed)